Location: Wavehorne
(51.0500°N, 0.8333°E)
Time: 20:37:07
(UTC+00:00)

Cosmos 2219 Rocket - Pass Details

Date: 20 June 2021
Orbit: 828 x 846 km, 71.0° (Epoch: 23 July)

Event Time Altitude Azimuth Distance (km) Brightness Sun altitude
Rises 00:00:52 0° 257° (WSW) 3,404 5.2 -15.5°
Reaches altitude 10° 00:03:52 10° 273° (W) 2,471 4.6 -15.5°
Maximum altitude 00:08:14 22° 323° (NW) 1,768 4.5 -15.5°
Drops below altitude 10° 00:12:36 10° 14° (NNE) 2,474 6.0 -15.4°
Sets 00:15:38 0° 29° (NNE) 3,409 6.6 -15.4°
